FW4012 Weather Reports


time (UTC)temp
C
wind
direction
speed
KPH
gust
KPH
rain 1hr
cm
rain 24hr
cm
rain mn
cm
humidity
%
barometer
mb
20260505224226 12 201 0.0 4.8 0.30 17.40 0.05 95 1010.5
20260505223741 12 201 1.6 4.8 0.41 17.40 0.05 95 1010.5
20260505223240 12 201 0.0 3.2 0.61 17.40 0.05 95 1010.5
20260505222738 12 201 1.6 3.2 1.30 17.40 0.05 95 1010.5
20260505222306 12 201 0.0 4.8 1.40 17.30 0.03 95 1010.6
20260505221727 12 201 1.6 6.4 1.50 17.20 0.00 95 1010.5
20260505221235 12 201 4.8 6.4 1.50 17.20 0.00 95 1010.5
20260505220734 12 174 3.2 8.0 1.50 17.20 0.00 95 1010.6
20260505220232 12 177 1.6 8.0 1.60 17.20 0.00 95 1010.6
20260505215731 12 126 3.2 8.0 1.70 17.20 4.37 95 1010.5
20260505215304 12 117 1.6 4.8 1.70 17.20 4.37 95 1010.7
20260505214737 12 115 0.0 1.6 1.60 17.09 4.34 95 1010.6
20260505214258 12 115 0.0 1.6 1.60 17.09 4.34 95 1010.8
20260505213734 12 115 0.0 3.2 1.40 16.89 4.29 95 1010.9
20260505213235 12 115 1.6 3.2 1.30 16.69 4.24 95 1010.9
20260505212735 12 115 1.6 4.8 0.71 16.10 4.09 95 1011.0
20260505212232 12 115 1.6 6.4 0.51 15.90 4.04 95 1011.1
20260505211733 12 115 1.6 6.4 0.30 15.70 3.99 95 1011.1
20260505211233 12 138 0.0 4.8 0.30 15.70 3.99 95 1011.1
20260505210734 12 138 1.6 9.7 0.30 15.70 3.99 95 1011.1
20260505210233 12 153 6.4 9.7 0.10 15.49 3.94 95 1011.2
20260505205734 12 133 4.8 6.4 0.10 15.49 3.94 95 1011.3
20260505205233 12 134 3.2 6.4 0.10 15.49 3.94 95 1011.3
20260505204734 12 135 4.8 6.4 0.10 15.49 3.94 95 1011.3
20260505204232 12 121 3.2 6.4 0.10 15.49 3.94 95 1011.4
20260505203757 12 125 3.2 6.4 0.10 15.49 3.94 95 1011.4
20260505203234 12 125 1.6 6.4 0.10 15.39 3.91 95 1011.4
20260505202734 12 125 4.8 11.3 0.30 15.39 3.91 95 1011.4
20260505202235 12 130 4.8 11.3 0.89 15.39 3.91 95 1011.5
20260505201734 12 154 3.2 9.7 1.50 15.39 3.91 95 1011.5
20260505201255 12 119 4.8 9.7 1.50 15.39 3.91 95 1011.4
20260505200732 12 146 4.8 6.4 1.80 15.39 3.91 95 1011.4
20260505200232 12 144 3.2 11.3 2.31 15.39 3.91 95 1011.4
20260505195728 12 124 4.8 11.3 2.49 15.39 3.91 95 1011.3
20260505195229 12 110 4.8 9.7 2.79 15.39 3.91 95 1011.2
20260505194756 12 130 3.2 6.4 3.00 15.39 3.91 95 1011.2
20260505194231 12 238 0.0 4.8 3.10 15.39 3.91 95 1011.1
20260505193750 12 243 1.6 3.2 3.20 15.39 3.91 94 1011.2
20260505193230 12 243 0.0 3.2 3.20 15.29 3.89 94 1011.1
20260505192750 12 243 0.0 3.2 3.00 15.09 3.84 94 1011.1
20260505192229 12 243 0.0 3.2 2.21 14.30 3.63 94 1011.2
20260505191757 12 243 1.6 3.2 2.01 13.89 3.53 94 1011.1
20260505191234 12 243 1.6 4.8 2.01 13.89 3.53 94 1011.1
20260505190732 12 243 1.6 4.8 1.80 13.49 3.43 94 1011.0
20260505190227 12 243 3.2 4.8 1.60 13.11 3.33 94 1011.0
20260505185743 12 243 3.2 4.8 1.60 12.90 3.28 94 1010.9
20260505185243 12 243 3.2 4.8 1.50 12.50 3.17 94 1010.8
20260505184743 12 235 1.6 4.8 1.70 12.40 3.15 94 1010.9
20260505184242 12 235 1.6 4.8 1.60 12.29 3.12 94 1010.7
20260505183740 12 207 1.6 4.8 1.60 12.19 3.10 94 1010.8
20260505183240 12 180 1.6 3.2 1.50 12.09 3.07 94 1010.8
20260505182741 12 157 1.6 4.8 1.60 12.09 3.07 94 1010.8
20260505182243 12 252 0.0 3.2 1.60 11.99 3.05 94 1010.7
20260505181814 12 261 1.6 3.2 1.70 11.91 3.02 94 1010.8
20260505181239 12 261 3.2 4.8 2.01 11.91 3.02 94 1010.8
20260505180737 12 261 1.6 4.8 1.91 11.71 2.97 94 1010.8
20260505180235 12 261 3.2 4.8 1.80 11.51 2.92 94 1010.8
20260505175735 12 261 1.6 4.8 1.60 11.30 2.87 94 1010.7
20260505175234 12 260 1.6 6.4 1.50 11.00 2.79 94 1010.8
20260505174734 12 260 3.2 6.4 1.40 10.69 2.72 94 1010.9
20260505174233 12 279 1.6 6.4 1.60 10.69 2.72 94 1010.9
20260505173728 12 275 1.6 6.4 1.80 10.59 2.69 94 1010.8
20260505173226 12 5 4.8 6.4 2.01 10.59 2.69 94 1010.9
20260505172734 12 332 3.2 4.8 2.11 10.49 2.67 94 1010.9
20260505172232 12 342 1.6 6.4 2.11 10.39 2.64 94 1010.9
20260505171747 12 339 4.8 6.4 1.91 10.21 2.59 94 1010.9
20260505171227 12 319 4.8 8.0 1.60 9.91 2.51 93 1010.8
20260505170729 12 333 4.8 9.7 1.50 9.80 2.49 93 1010.9
20260505170230 12 323 6.4 9.7 1.40 9.70 2.46 93 1010.9
20260505165729 12 347 4.8 9.7 1.60 9.70 2.46 93 1010.9
20260505165229 12 315 4.8 9.7 1.40 9.50 2.41 93 1010.8
20260505164729 12 321 4.8 9.7 1.30 9.30 2.36 93 1010.9
20260505164249 12 344 4.8 9.7 1.09 9.09 2.31 93 1010.9
20260505163724 12 339 3.2 8.0 0.79 8.79 2.24 93 1011.0
20260505163251 12 342 4.8 8.0 0.71 8.61 2.18 93 1011.1
20260505162750 12 306 3.2 8.0 0.51 8.41 2.13 93 1011.0
20260505162246 12 317 3.2 8.0 0.41 8.31 2.11 93 1011.0
20260505161748 12 324 4.8 8.0 0.41 8.31 2.11 93 1011.0
20260505161249 12 349 4.8 8.0 0.41 8.31 2.11 93 1011.0
20260505160750 12 326 4.8 8.0 0.41 8.31 2.11 93 1011.1
20260505160225 12 331 6.4 8.0 0.30 8.20 2.11 93 1011.0
20260505153239 12 11 6.4 12.9 0.51 7.90 2.01 93 1011.2
20260505152800 12 329 6.4 8.0 0.61 7.90 2.01 93 1011.3
20260505152300 12 331 4.8 12.9 0.61 7.90 2.01 93 1011.2
20260505151739 12 313 4.8 12.9 0.61 7.90 2.01 93 1011.3
20260505151239 12 295 4.8 8.0 0.61 7.90 2.01 93 1011.2
20260505150809 12 323 4.8 6.4 0.61 7.90 2.01 93 1011.3
20260505150248 12 294 4.8 6.4 0.61 7.90 2.01 93 1011.2
20260505140236 12 350 8.0 12.9 0.61 7.19 1.83 92 1011.5
20260505130227 12 333 4.8 6.4 0.30 6.60 1.68 91 1012.0
20260505124738 12 338 6.4 9.7 0.20 6.50 1.65 91 1012.0
20260505124239 12 360 4.8 6.4 0.20 6.50 1.65 91 1011.9
20260505123737 12 32 3.2 6.4 0.10 6.40 1.63 91 1012.0
20260505123238 12 16 3.2 9.7 0.20 6.40 1.63 91 1012.0
20260505122738 12 11 4.8 12.9 0.20 6.40 1.63 91 1011.9
20260505122239 12 335 8.0 12.9 0.30 6.40 1.63 91 1011.9
20260505121738 12 348 3.2 6.4 0.41 6.40 1.63 91 1012.0
20260505121232 12 32 1.6 4.8 0.41 6.30 1.60 91 1012.0
20260505120731 12 32 0.0 4.8 0.41 6.30 1.60 91 1011.8
20260505120227 12 32 3.2 4.8 0.51 6.30 1.60 91 1011.8
20260505115727 12 32 1.6 3.2 0.61 6.30 1.60 91 1011.9
20260505115255 12 355 0.0 3.2 0.71 6.30 1.60 91 1011.9
20260505114733 12 355 0.0 4.8 0.79 6.30 1.60 91 1011.9
20260505114231 12 5 1.6 8.0 0.79 6.30 1.60 91 1012.0
20260505113730 12 23 4.8 8.0 0.89 6.30 1.60 91 1012.0
20260505113250 12 346 3.2 6.4 0.79 6.20 1.57 91 1012.1
20260505112725 12 339 3.2 6.4 0.89 6.20 1.57 91 1012.1
20260505112226 12 321 0.0 3.2 0.79 6.10 1.55 91 1012.2
20260505111726 12 321 0.0 3.2 0.71 5.99 1.52 91 1012.1
20260505111227 12 321 1.6 3.2 0.61 5.89 1.50 91 1012.2
20260505110728 12 321 0.0 6.4 0.71 5.89 1.50 91 1012.2
20260505110247 12 321 3.2 6.4 0.61 5.69 1.45 91 1012.1
20260505101729 12 347 6.4 14.5 0.89 5.31 1.35 91 1012.1
20260505101231 12 339 8.0 14.5 0.99 5.31 1.35 91 1012.1
20260505100733 12 30 6.4 12.9 0.89 5.21 1.32 91 1012.1
20260505100231 12 329 6.4 14.5 0.79 5.11 1.30 91 1012.2
20260505095741 12 326 6.4 14.5 0.89 5.11 1.30 91 1012.2
20260505095229 12 338 6.4 12.9 0.71 4.90 1.24 91 1012.3
20260505094800 12 314 8.0 12.9 0.61 4.80 1.22 91 1012.3
20260505094234 13 316 6.4 12.9 0.51 4.70 1.19 91 1012.3
20260505093755 13 319 4.8 12.9 0.51 4.60 1.17 91 1012.3
20260505093300 12 319 6.4 9.7 0.51 4.60 1.17 91 1012.4
20260505092740 12 11 4.8 9.7 0.41 4.50 1.14 91 1012.4
20260505092239 12 360 4.8 8.0 0.41 4.50 1.14 91 1012.4
20260505091739 13 355 3.2 8.0 0.30 4.39 1.12 92 1012.3
20260505091238 12 336 3.2 8.0 0.20 4.29 1.09 92 1012.2
20260505090737 12 355 4.8 8.0 0.20 4.29 1.09 92 1012.2
20260505090235 12 355 4.8 8.0 0.20 4.29 1.09 92 1012.3
20260505085734 12 350 4.8 8.0 0.10 4.19 1.07 92 1012.2
20260505085229 12 332 6.4 8.0 0.10 4.19 1.07 92 1012.2
20260505084748 12 317 3.2 9.7 0.10 4.19 1.07 92 1012.2
20260505084248 12 355 8.0 12.9 0.10 4.09 1.04 92 1012.0
20260505083727 12 360 6.4 12.9 0.10 4.09 1.04 92 1012.0
20260505083227 12 329 6.4 16.1 0.10 4.09 1.04 92 1011.9
20260505082728 12 326 8.0 16.1 0.10 4.09 1.04 92 1011.9
20260505082230 12 360 6.4 14.5 0.10 4.09 1.04 92 1011.9
20260505081730 12 339 8.0 14.5 0.20 4.09 1.04 92 1011.7
20260505081230 12 342 6.4 12.9 0.20 4.09 1.04 92 1011.7
20260505080726 12 345 8.0 14.5 0.30 4.09 1.04 92 1011.8
20260505080227 12 346 6.4 14.5 0.30 4.09 1.04 92 1011.8
20260505075727 12 17 4.8 17.7 0.51 4.09 1.04 91 1011.7
20260505075228 12 345 8.0 17.7 0.61 4.09 1.04 91 1011.6
20260505074727 12 323 11.3 16.1 0.79 4.09 1.04 91 1011.7
20260505074228 12 309 11.3 16.1 1.09 3.99 1.02 91 1011.6
20260505073727 12 336 6.4 14.5 1.60 3.99 1.02 91 1011.8
20260505073228 12 360 9.7 16.1 1.91 3.99 1.02 91 1011.7
20260505072729 12 347 8.0 16.1 2.11 3.99 1.02 91 1011.8
20260505072228 12 321 8.0 12.9 2.31 3.99 1.02 91 1011.9
20260505071730 12 5 6.4 12.9 2.31 3.91 0.99 91 1012.0
20260505071249 12 321 4.8 14.5 2.39 3.91 0.99 91 1011.7
20260505070727 11 337 8.0 14.5 2.39 3.81 0.97 90 1011.9
20260505070224 11 346 6.4 9.7 2.31 3.71 0.94 90 1012.1
20260505065723 11 18 4.8 9.7 2.31 3.61 0.91 90 1012.1
20260505065253 11 9 6.4 9.7 2.21 3.51 0.89 90 1012.0
20260505064751 11 313 4.8 6.4 2.01 3.20 0.81 90 1012.0
20260505064230 11 301 3.2 8.0 1.80 2.90 0.74 89 1012.0
20260505063728 11 278 1.6 8.0 1.30 2.39 0.61 89 1012.0
20260505063228 11 355 4.8 8.0 1.09 2.11 0.53 89 1012.0
20260505062724 11 360 4.8 9.7 0.89 1.80 0.48 89 1011.7
20260505062242 11 11 4.8 12.9 0.89 1.70 0.43 89 1011.7
20260505061741 11 355 6.4 12.9 0.79 1.60 0.41 89 1011.7
20260505061301 11 22 6.4 12.9 0.79 1.50 0.38 88 1011.7
20260505060739 11 355 6.4 12.9 0.79 1.40 0.36 88 1011.7
20260505060240 11 302 4.8 8.0 0.89 1.40 0.36 88 1011.7
20260505055745 11 360 4.8 8.0 0.89 1.30 0.33 88 1011.7
20260505055244 11 341 4.8 12.9 0.89 1.30 0.33 88 1011.6
20260505054803 11 319 6.4 12.9 0.79 1.19 0.30 88 1011.6
20260505054241 11 355 4.8 12.9 0.71 1.09 0.28 87 1011.4
20260505053736 11 336 6.4 12.9 0.79 1.09 0.28 87 1011.3
20260505053235 11 344 6.4 16.1 0.71 0.99 0.25 87 1011.3
20260505052732 11 334 6.4 16.1 0.61 0.89 0.23 87 1011.1
20260505052232 11 317 6.4 12.9 0.51 0.79 0.20 87 1011.2
20260505051731 12 332 1.6 17.7 0.61 0.79 0.20 86 1011.2
20260505051231 12 302 6.4 17.7 0.51 0.71 0.18 86 1011.2
20260505050732 12 311 6.4 17.7 0.41 0.61 0.15 86 1011.2
20260505050232 12 327 8.0 17.7 0.41 0.51 0.13 86 1011.1
20260505041732 12 9 1.6 3.2 0.20 0.20 0.05 85 1010.9
20260505041232 12 9 0.0 0.0 0.20 0.20 0.05 84 1010.9
20260505040733 12 5 0.0 0.0 0.10 0.10 0.03 83 1011.0
20260505040231 12 9 0.0 0.0 0.10 0.10 0.03 82 1011.0
20260505035731 12 5 0.0 0.0 0.00 0.00 0.00 82 1011.0
20260505035228 12 5 0.0 0.0 0.00 0.00 0.00 82 1011.1
20260505034727 13 5 0.0 0.0 0.00 0.00 0.00 81 1011.0
20260505034227 13 5 0.0 0.0 0.00 0.00 0.00 80 1011.0
20260505033746 13 5 0.0 0.0 0.00 0.00 0.00 79 1010.9
20260505033226 13 5 0.0 1.6 0.00 0.00 0.00 78 1010.9
20260505032726 13 5 0.0 1.6 0.00 0.00 0.00 77 1011.0
20260505032250 13 5 0.0 1.6 0.00 0.00 0.00 77 1011.0
20260505031729 13 5 1.6 1.6 0.00 0.00 0.00 77 1011.0
20260505031228 13 5 0.0 1.6 0.00 0.00 0.00 77 1011.1
20260505030728 13 5 0.0 1.6 0.00 0.00 0.00 76 1011.2
20260505030226 13 5 0.0 1.6 0.00 0.00 0.00 76 1011.2
20260505025725 13 5 0.0 4.8 0.00 0.00 0.00 75 1011.1
20260505025224 13 5 1.6 4.8 0.00 0.00 0.00 75 1011.1
20260505024724 13 159 0.0 4.8 0.00 0.00 0.00 75 1011.1
20260505024250 13 280 0.0 4.8 0.00 0.00 0.00 73 1011.2
20260505023749 13 280 3.2 6.4 0.00 0.00 0.00 73 1011.2
20260505023249 13 275 3.2 11.3 0.00 0.00 0.00 73 1011.3
20260505022750 13 257 3.2 11.3 0.00 0.00 0.00 73 1011.5
20260505022250 13 275 1.6 6.4 0.00 0.00 0.00 73 1011.6
20260505021738 13 273 3.2 6.4 0.00 0.00 0.00 74 1011.7
20260505021302 13 283 3.2 6.4 0.00 0.00 0.00 75 1011.8
20260505020740 13 263 3.2 6.4 0.00 0.00 0.00 76 1011.8
20260505020240 13 274 1.6 3.2 0.00 0.00 0.00 75 1011.9
20260505015738 13 265 1.6 4.8 0.00 0.00 0.00 73 1012.0
20260505015238 13 265 1.6 4.8 0.00 0.00 0.00 73 1012.0
20260505014738 13 267 1.6 4.8 0.00 0.00 0.00 73 1012.0
20260505014237 13 226 1.6 4.8 0.00 0.00 0.00 73 1012.0
20260505013735 13 226 3.2 6.4 0.00 0.00 0.00 73 1012.2
20260505013235 13 238 3.2 8.0 0.00 0.00 0.00 73 1012.2
20260505012732 13 250 3.2 8.0 0.00 0.00 0.00 73 1012.2
20260505012248 13 261 1.6 9.7 0.00 0.00 0.00 74 1012.3
20260505011727 13 266 3.2 8.0 0.00 0.00 0.00 74 1012.3
20260505011228 13 242 1.6 6.4 0.00 0.00 0.00 74 1012.4
20260505010726 13 242 1.6 6.4 0.00 0.00 0.00 74 1012.5
20260505010254 13 236 1.6 6.4 0.00 0.00 0.00 74 1012.5
20260505005732 13 242 3.2 9.7 0.00 0.00 0.00 75 1012.5
20260505005232 13 231 4.8 9.7 0.00 0.00 0.00 76 1012.6
20260505004733 13 226 0.0 6.4 0.00 0.00 0.00 78 1012.7
20260505004234 13 238 1.6 6.4 0.00 0.00 0.00 79 1012.8
20260505003732 13 200 1.6 3.2 0.00 0.00 0.00 80 1013.0
20260505003231 13 200 1.6 6.4 0.00 0.00 0.00 80 1013.2
20260505002730 13 200 1.6 6.4 0.00 0.00 0.00 81 1013.2
20260505002228 13 215 1.6 8.0 0.00 0.00 0.00 81 1013.3
20260505001746 13 296 1.6 6.4 0.00 0.00 0.00 82 1013.4
20260505001253 13 170 0.0 0.0 0.00 0.00 0.00 81 1013.4
20260505000750 12 113 0.0 0.0 0.00 0.00 0.00 81 1013.5
20260505000223 12 113 0.0 0.0 0.00 0.00 0.00 81 1013.6
20260504235741 12 113 0.0 1.6 0.00 0.00 0.00 81 1013.8
20260504235304 12 113 0.0 3.2 0.00 0.00 0.00 81 1013.8
20260504234827 12 113 0.0 3.2 0.00 0.00 0.00 81 1013.9
20260504233732 12 113 0.0 3.2 0.00 0.00 0.00 81 1013.9
20260504233233 12 113 1.6 3.2 0.00 0.00 0.00 81 1013.9
20260504232731 12 232 0.0 0.0 0.00 0.00 0.00 81 1013.9
20260504232229 12 232 0.0 0.0 0.00 0.00 0.00 81 1014.1
20260504231752 12 232 0.0 0.0 0.00 0.00 0.00 81 1014.0
20260504231231 12 232 0.0 0.0 0.00 0.00 0.00 81 1014.0
20260504230730 12 232 0.0 0.0 0.00 0.00 0.00 81 1014.1
20260504230250 12 232 0.0 1.6 0.00 0.00 0.00 81 1014.2
20260504225728 12 232 0.0 1.6 0.00 0.00 0.00 81 1014.3
20260504225228 12 232 0.0 1.6 0.00 0.00 0.00 81 1014.3
20260504224758 12 232 0.0 1.6 0.00 0.00 0.00 81 1014.4
20260504224237 12 232 0.0 0.0 0.00 0.00 0.00 81 1014.5